Regional Weather Roundup
Issued by NWS

Home | Current Version | Previous Version | Text Only | Print | Product List | Glossary Off
Versions: 1 2 3 4 5 6 7 8 9 10 11 12 13 14 15 16 17 18 19 20 21 22 23 24 25 26 27 28 29 30 31 32 33 34 35 36 37 38 39 40 41 42 43 44 45 46 47 48 49 50

000
ASUS44 KMEG 070300
RWRTN
TENNESSEE HOURLY STATE WEATHER ROUNDUP
NATIONAL WEATHER SERVICE MEMPHIS TN
900 PM CST TUE DEC 06 2016

TNZ002-004-019-021-049-052-054-088>092-070400-
WEST TENNESSEE

CITY           SKY/WX    TMP DP  RH WIND       PRES   REMARKS
MEMPHIS INTL   PTCLDY    41  39  93 CALM      30.06R
NWS MEMPHIS      N/A     39 N/A N/A MISG        N/A
JACKSON        CLOUDY    42  40  92 N5        30.08R
DYERSBURG      CLOUDY   N/A N/A N/A NE7       30.09R
UNION CITY     CLOUDY    41  37  87 N7        30.08R
PARIS          CLOUDY    37  34  87 N6        30.08R WCI  33
$$

TNZ008-025-027-028-033-062-065-066-070400-
NORTH MIDDLE TENNESSEE

CITY           SKY/WX    TMP DP  RH WIND       PRES   REMARKS
NASHVILLE      CLOUDY    45  39  79 N7        30.04R
CLARKSVILLE    CLOUDY    40  34  79 N9        30.07R WCI  34
SMYRNA         CLOUDY    44  40  85 N8        30.05R
CROSSVILLE     CLOUDY    42  38  85 NW8       29.98R
$$

TNZ061-075-076-078-094-096-097-070400-
SOUTH MIDDLE TENNESSEE

CITY           SKY/WX    TMP DP  RH WIND       PRES   REMARKS
TULLAHOMA      CLOUDY    43  39  87 N5        30.02R
WINCHESTER     CLOUDY    45  41  87 N7        30.01R
SHELBYVILLE    CLOUDY    46  43  87 NW5       30.03R
$$

TNZ017-018-042-046-047-070400-
NORTHEAST TENNESSEE

CITY           SKY/WX    TMP DP  RH WIND       PRES   REMARKS
TRI CITIES     CLOUDY    46  45  96 CALM      29.91R
$$

TNZ012-013-036-069-073-074-070400-
CENTRAL EAST TENNESSEE

CITY           SKY/WX    TMP DP  RH WIND       PRES   REMARKS
KNOXVILLE      CLOUDY    50  46  86 NW5       29.96R
OAK RIDGE      CLEAR     47  42  83 VRB3      29.98R
GATLINBURG     CLOUDY    48  45  87 W10       29.95R
$$

TNZ083-085-099-070400-
SOUTHEAST TENNESSEE

CITY           SKY/WX    TMP DP  RH WIND       PRES   REMARKS
CHATTANOOGA    CLOUDY    51  44  77 N12       29.97R
$$

SKY/WX REPORTED AS FAIR MEANS FEW OR NO CLOUDS BELOW
12 THOUSAND FEET.





USA.gov is the U.S. government's official web portal to all federal, state and local government web resources and services.